Tracking 30074 objects as of 13-Jan-2025
HD Live streaming from Space Station
objects crossing your sky now

ATLAS 5 CENTAUR DEB

Track ATLAS 5 CENTAUR DEB now!


NORAD ID: 49359
Int'l Code: 2018-079FL
Perigee: 8,367.5 km
Apogee: 34,548.6 km
Inclination: 12.7 °
Period: 770.0 minutes
Semi major axis: 27829 km
RCS: Unknown
Launch date: October 17, 2018
Source: United States (US)
Launch site: AIR FORCE EASTERN TEST RANGE (AFETR)

Note: This is SATELLITE DEBRIS
Your satellite tracking list
Your tracking list is empty




NASA's NSSDC Master Catalog

Two Line Element Set (TLE):
1 49359U 18079FL  25011.84021677 -.00000191  00000-0  00000-0 0  9991
2 49359  12.7456  69.9755 4703921 251.8543  52.6739  1.87006192 23036
Source of the keplerian elements: AFSPC